Regional Weather Roundup
Issued by NWS Northern Indiana

Home | Current Version | Previous Version | Text Only | Print | Product List | Glossary Off
Versions: 1 2 3 4 5 6 7 8 9 10 11 12 13 14 15 16 17 18 19 20 21 22 23 24 25 26 27 28 29 30 31 32 33 34 35 36 37 38 39 40 41 42 43 44 45 46 47 48 49 50

000
ASUS43 KIWX 231310
RWRIWX

KIWX WEATHER ROUNDUP
NATIONAL WEATHER SERVICE NORTHERN INDIANA
900 AM EDT WED JUL 23 2014

NOTE: "FAIR" INDICATES FEW OR NO CLOUDS BELOW 12,000 FEET WITH NO
SIGNIFICANT WEATHER AND/OR OBSTRUCTIONS TO VISIBILITY.

* THESE STATIONS ARE NOT UNDER NWS QUALITY CONTROL. THEY ALSO MAY NOT
  REPORT WEATHER SUCH AS PRECIPITATION OR FOG.

INZ001>027-231400-
NORTHERN INDIANA

CITY           SKY/WX    TMP DP  RH WIND       PRES   REMARKS
GARY*          PTSUNNY   66  59  77 N14G28    30.12R
VALPARAISO     CLOUDY    65  60  84 N9G20     30.10R
MICHIGAN CITY* CLOUDY    64  59  82 N9G18     30.10R
LAPORTE*       MOSUNNY   66  60  80 N14G20    30.10R
KNOX*          MOSUNNY   66  60  82 N10G18    30.08R
SOUTH BEND     PTSUNNY   65  58  78 N14       30.09R
ELKHART*       CLOUDY    63  59  88 N9        30.07
GOSHEN         CLOUDY    66  64  93 N15       30.05R
MONTICELLO*    CLOUDY    67  66  97 N6        30.07R FOG
LOGANSPORT*    RAIN      68  66  94 NW6       30.06S
ROCHESTER*     CLOUDY    70  70 100 N7        30.06R FOG
WARSAW*        CLOUDY    68  68 100 N6        30.05R FOG
ANGOLA*        CLOUDY    70  61  73 N6        30.02S
FORT WAYNE     CLOUDY    70  67  90 SW6       30.04R
HUNTINGTON*    CLOUDY    69  67  92 CALM      30.04R
PERU/GRISSOM   DRIZZLE   70  70 100 NW9       30.05R FOG
MARION*        CLOUDY    69  67  90 NW7       30.04S

$$
INZ028>050-231400-
CENTRAL INDIANA

CITY           SKY/WX    TMP DP  RH WIND       PRES   REMARKS
LAFAYETTE      CLOUDY    69  67  93 N12       30.05R FOG
KOKOMO*        CLOUDY    70  68  94 NW7       30.06R
MUNCIE*        CLOUDY    71  66  84 NW7       30.06R
INDIANAPOLIS   PTSUNNY   74  67  78 CALM      30.00R

$$
MIZ043>046-050>051-056>058-064>065-071>073-077>080-231400-
SOUTHWEST LOWER MICHIGAN

CITY           SKY/WX    TMP DP  RH WIND       PRES   REMARKS
BATTLE CREEK   CLOUDY    65  57  75 N13       30.06S
BENTON HARBOR  PTSUNNY   63  56  78 NE9G21    30.09R
COLDWATER*     CLOUDY    66  62  86 N13       30.04R
HILLSDALE*     CLOUDY    66  64  91 N13       30.03R
HOLLAND        MOSUNNY   65  57  75 N12G18    30.10R
GRAND RAPIDS   PTSUNNY   66  58  75 NE12      30.08F
KALAMAZOO      CLOUDY    65  57  75 NE12G20   30.07R
STURGIS*       CLOUDY    66  63  88 N8        30.04R
THREE RIVERS*  CLOUDY    65  61  86 N7        30.06R

$$
OHZ001>008-015>018-024>025-231400-
NORTHWEST OHIO

CITY           SKY/WX    TMP DP  RH WIND       PRES   REMARKS
WAUSEON*       PTSUNNY   72  68  88 N7        29.99S
DEFIANCE       CLOUDY    74  66  76 NW10      30.00R
FINDLAY        CLOUDY    72  68  87 SW9       29.98S
TOLEDO EXPRESS CLOUDY    72  66  83 N8        29.98S
TOLEDO METCALF CLOUDY    73  66  78 NW6       29.99R
LIMA           CLOUDY    72  67  84 SW6       30.02R

$$
&&



USA.gov is the U.S. government's official web portal to all federal, state and local government web resources and services.